Weather History for Lulea-Kallax, Sweden

Change the Weather History Date:

Friday, January 18, 2013

  Actual Average Record
Temperature  
Mean Temperature 16 °F -  
Max Temperature 32 °F - - ()
Min Temperature 1 °F - - ()
Degree Days  
Heating Degree Days 48    
Moisture  
Dew Point 12 °F    
Average Humidity 91    
Maximum Humidity 100    
Minimum Humidity 78    
Precipitation  
Precipitation 0.00 in - - ()
Sea Level Pressure  
Sea Level Pressure 29.91 in    
Wind  
Wind Speed 3 mph ()    
Max Wind Speed 6 mph    
Max Gust Speed -    
Visibility 8.2 miles    
Events      
T = Trace of Precipitation, MM = Missing Value Source: Averaged Metar Reports

Daily Weather History Graph

Daily Weather History Graph

Search for Another Location

Airport:

Trip Planner

Search our weather history database for the weather conditions in past years. The results will help you decide how hot, cold, wet, or windy it might be!

Date:

Astronomy

Jan. 18, 2013 Rise Set
Actual Time 9:08 AM CET 2:16 PM CET
Civil Twilight 7:55 AM CET 3:28 PM CET
Nautical Twilight 6:48 AM CET 4:36 PM CET
Astronomical Twilight 5:47 AM CET 5:37 PM CET
Moon 9:15 AM CET (1/18) 12:00 AM CET (1/18)
Length of Visible Light 7h 32m
Length of Day
5h 07m
Waxing Crescent, 45% of the Moon is Illuminated
Jan 18
Waxing Crescent
Jan 19
First Quarter
Jan 27
Full
Feb 3
Last Quarter
Feb 10
New

Hourly Weather History & Observations

Time (CET) Temp. Windchill Dew Point Humidity Pressure Visibility Wind Dir Wind Speed Gust Speed Precip Events Conditions
12:00 AM 3 °F - -0 °F 81% 30.15 in 31 mi SSW 2.2 mph - -  
12:20 AM 3.2 °F - -0.4 °F 85% 30.12 in 6.2 mi South 2.3 mph - N/A   Unknown
12:50 AM 3.2 °F -4.2 °F -0.4 °F 85% 30.12 in 6.2 mi South 3.5 mph - N/A   Unknown
1:00 AM 2 °F - -1 °F 78% 30.14 in 31 mi South 2.2 mph - -  
1:20 AM 1.4 °F -8.3 °F -0.4 °F 92% 30.09 in 6.2 mi South 4.6 mph - N/A   Unknown
1:50 AM 3.2 °F -4.2 °F -0.4 °F 85% 30.09 in 6.2 mi SSW 3.5 mph - N/A   Unknown
2:00 AM 2 °F - -1 °F 82% 30.11 in 31 mi SSW 2.2 mph - -  
2:20 AM 3.2 °F - -0.4 °F 85% 30.09 in 6.2 mi SSW 2.3 mph - N/A   Unknown
2:50 AM 3.2 °F - -0.4 °F 85% 30.09 in 6.2 mi South 2.3 mph - N/A   Unknown
3:00 AM 2 °F - -1 °F 83% 30.09 in 31 mi South 4.5 mph - -  
3:20 AM 3.2 °F -6.2 °F -0.4 °F 85% 30.06 in 6.2 mi South 4.6 mph - N/A   Unknown
3:50 AM 3.2 °F -4.2 °F 1.4 °F 92% 30.06 in 6.2 mi South 3.5 mph - N/A   Unknown
4:20 AM 5.0 °F - 1.4 °F 85% 30.06 in 6.2 mi SSW 2.3 mph - N/A   Unknown
4:50 AM 5.0 °F -2.1 °F 1.4 °F 85% 30.04 in - South 3.5 mph - N/A   Clear
5:00 AM 3 °F - 0 °F 82% 30.05 in 31 mi South 2.2 mph - -  
5:20 AM 3.2 °F -4.2 °F -0.4 °F 85% 30.01 in - South 3.5 mph - N/A   Clear
5:50 AM 5.0 °F -2.1 °F 1.4 °F 85% 30.01 in - SSE 3.5 mph - N/A   Clear
6:00 AM 4 °F - 1 °F 82% 30.02 in 31 mi South 4.5 mph - -   Overcast
6:20 AM 5.0 °F -4.1 °F 1.4 °F 85% 30.01 in - South 4.6 mph - N/A   Clear
6:50 AM 6.8 °F -0.1 °F 3.2 °F 85% 29.98 in - South 3.5 mph - N/A   Clear
7:00 AM 6 °F - 4 °F 87% 30.00 in 37 mi South 2.2 mph - -   Overcast
7:20 AM 6.8 °F - 5.0 °F 92% 29.98 in - South 2.3 mph - N/A   Clear
7:50 AM 8.6 °F - 6.8 °F 92% 29.95 in - South 2.3 mph - N/A   Clear
8:00 AM 8 °F - 6 °F 88% 29.98 in 47 mi South 2.2 mph - -   Overcast
8:20 AM 10.4 °F 4.0 °F 6.8 °F 85% 29.95 in - South 3.5 mph - N/A   Clear
8:50 AM 10.4 °F - 8.6 °F 92% 29.95 in - South 2.3 mph - N/A   Clear
9:00 AM 11 °F - 9 °F 85% 29.96 in 40 mi South 2.2 mph - -   Overcast
9:20 AM 10.4 °F - 8.6 °F 92% 29.95 in - South 2.3 mph - N/A   Clear
9:50 AM 12.2 °F 6.1 °F 10.4 °F 92% 29.92 in - South 3.5 mph - N/A   Clear
10:20 AM 14.0 °F 8.2 °F 12.2 °F 93% 29.92 in - South 3.5 mph - N/A   Clear
10:50 AM 14.0 °F - 12.2 °F 93% 29.92 in - South 2.3 mph - N/A   Clear
11:00 AM 15 °F - 13 °F 88% 29.93 in 31 mi South 2.2 mph - -   Scattered Clouds
11:20 AM 15.8 °F - 14.0 °F 93% 29.92 in - SSE 2.3 mph - N/A   Clear
11:50 AM 15.8 °F 10.2 °F 14.0 °F 93% 29.92 in - South 3.5 mph - N/A   Clear
12:00 PM 16 °F - 15 °F 91% 29.92 in 31 mi South 2.2 mph - -   Scattered Clouds
12:20 PM 17.6 °F 12.3 °F 15.8 °F 93% 29.89 in - SSW 3.5 mph - N/A   Clear
12:50 PM 17.6 °F 12.3 °F 15.8 °F 93% 29.89 in - SSW 3.5 mph - N/A   Clear
1:00 PM 18 °F - 17 °F 91% 29.89 in 28 mi SSW 2.2 mph - -  
1:20 PM 19.4 °F 14.3 °F 17.6 °F 93% 29.86 in - SW 3.5 mph - N/A   Clear
1:50 PM 19.4 °F 12.8 °F 19.4 °F 100% 29.86 in - SSW 4.6 mph - N/A   Clear
2:00 PM 19 °F - 18 °F 94% 29.87 in 28 mi SSW 2.2 mph - -  
2:20 PM 19.4 °F - 17.6 °F 93% 29.86 in - South 2.3 mph - N/A   Clear
2:50 PM 19.4 °F 14.3 °F 17.6 °F 93% 29.86 in - SSW 3.5 mph - N/A   Clear
3:00 PM 20 °F - 18 °F 91% 29.86 in 28 mi SSW 2.2 mph - -  
3:20 PM 19.4 °F 14.3 °F 19.4 °F 100% 29.83 in - SSW 3.5 mph - N/A   Clear
3:50 PM 21.2 °F 14.9 °F 19.4 °F 93% 29.83 in - SW 4.6 mph - N/A   Clear
4:20 PM 21.2 °F 16.4 °F 19.4 °F 93% 29.83 in - SW 3.5 mph - N/A   Clear
4:50 PM 21.2 °F - 19.4 °F 93% 29.83 in - SSW 2.3 mph - N/A   Clear
5:00 PM 21 °F - 20 °F 95% 29.83 in 28 mi SE 2.2 mph - -  
5:20 PM 21.2 °F - 19.4 °F 93% 29.83 in - Calm Calm - N/A   Clear
5:50 PM 21.2 °F - 19.4 °F 93% 29.80 in - SSE 1.2 mph - N/A   Clear
6:00 PM 21 °F - 20 °F 94% 29.82 in 22 mi Calm Calm - -  
6:20 PM 21.2 °F - 19.4 °F 93% 29.80 in - Calm Calm - N/A   Clear
6:50 PM 21.2 °F - 21.2 °F 100% 29.80 in - Calm Calm - N/A   Clear
7:00 PM 21 °F - 20 °F 95% 29.80 in 22 mi SSE 2.2 mph - -  
7:20 PM 21.2 °F - 21.2 °F 100% 29.77 in - Calm Calm - N/A   Clear
7:50 PM 21.2 °F - 19.4 °F 93% 29.77 in - Calm Calm - N/A   Clear
8:00 PM 21 °F - 20 °F 94% 29.78 in 19 mi Calm Calm - -  
8:20 PM 21.2 °F - 19.4 °F 93% 29.77 in - Calm Calm - N/A   Clear
8:50 PM 21.2 °F 16.4 °F 19.4 °F 93% 29.74 in - WNW 3.5 mph - N/A   Clear
9:00 PM 19 °F - 18 °F 96% 29.77 in 15 mi South 2.2 mph - -  
9:20 PM 21.2 °F 13.6 °F 19.4 °F 93% 29.74 in - West 5.8 mph - N/A   Clear
9:50 PM 24.8 °F 20.5 °F 24.8 °F 100% 29.74 in - West 3.5 mph - N/A   Clear
10:20 PM 32.0 °F 27.5 °F 30.2 °F 93% 29.71 in - WNW 4.6 mph - N/A   Clear
10:50 PM 32.0 °F 26.4 °F 32.0 °F 100% 29.71 in - West 5.8 mph - N/A   Clear
11:00 PM 31 °F - 30 °F 96% 29.73 in 28 mi West 2.2 mph - -  
11:20 PM 32.0 °F 26.4 °F 32.0 °F 100% 29.71 in - WNW 5.8 mph - N/A   Clear
11:50 PM 30.2 °F 25.4 °F 30.2 °F 100% 29.71 in - WNW 4.6 mph - N/A   Clear